Location: Albany
(42.6526°N, 73.7562°W)
Time: 14:45:52
(UTC+00:00)

Cosmos 1697 Rocket - Visible Passes

Search period start: 18 February 2020 00:00
Search period end: 28 February 2020 00:00
Orbit: 833 x 843 km, 71.0° (Epoch: 17 February)

Date Brightness Start Highest point End Pass type
(mag) Time Alt. Az. Time Alt. Az. Time Alt. Az.
18 Feb 5.5 11:07:44 10° NE 11:08:16 10° NE 11:08:48 10° NE visible
24 Feb 4.3 11:11:15 10° N 11:16:25 35° ENE 11:21:33 10° ESE visible
25 Feb 4.4 10:55:07 10° N 11:00:12 33° NE 11:05:15 10° ESE visible
26 Feb 4.5 10:38:59 10° N 10:43:59 31° NE 10:48:57 10° ESE visible
27 Feb 4.6 10:22:53 10° N 10:27:46 29° NE 10:32:38 10° ESE visible
